Regional Weather Roundup
Issued by NWS

Home | Current Version | Previous Version | Graphics & Text | Print | Product List | Glossary On
Versions: 1 2 3 4 5 6 7 8 9 10 11 12 13 14 15 16 17 18 19 20 21 22 23 24 25 26 27 28 29 30 31 32 33 34 35 36 37 38 39 40 41 42 43 44 45 46 47 48 49 50
000
ASUS45 KSLC 042310
RWRUT

UTAH REGIONAL WEATHER ROUNDUP
NATIONAL WEATHER SERVICE SALT LAKE CITY UT
500 PM MDT FRI SEP 04 2015

UTZ001>011-023>025-050000-

NORTHERN UTAH

CITY           SKY/WX    TMP DP  RH WIND       PRES   REMARKS
BRIGHAM CITY     N/A     87  29  12 SW16G25   29.72F
HILL AFB         N/A     83  37  19 S21       29.75F
LOGAN          SUNNY     85  35  16 S18G31    29.73F
OGDEN            N/A     85  35  16 SW20G25   29.73F
PROVO AIRPORT  MOSUNNY   84  45  24 S17       29.78F
SALT LAKE CITY PTSUNNY   88  32  13 S29G37    29.72F
VERNAL         MOSUNNY   82  40  22 S18G25    29.88F
WENDOVER         N/A     86  27  11 SW24G30   29.67F
HEBER CITY       N/A     79  32  18 SW21G33   29.85R
WEST JORDAN    SUNNY     84  36  17 S29G40    29.76F

$$

UTZ012>022-026-027-050000-

SOUTHERN/CENTRAL UTAH

CITY           SKY/WX    TMP DP  RH WIND       PRES   REMARKS
BLANDING       PTSUNNY   73  49  43 CALM      30.10F
BRYCE CANYON   PTSUNNY   72  39  30 S16       30.10F
CEDAR CITY       N/A     78  39  24 S17G30    29.92F
DELTA            N/A     85  32  14 SW30G37   29.81F
HANKSVILLE       N/A     88  36  15 S14G25    29.87F
MILFORD          N/A     84  38  19 SW35G41   29.85S
MOAB/CYNLANDS    N/A     82  48  30 SE10      29.87F
PRICE            N/A     74  38  27 VRB5      29.94F
ST GEORGE        N/A     93  43  17 SW29      29.77S
KANAB            N/A     81  45  28 SW10G18   29.96F

$$

REGIONAL REPORTS     COLORADO/ARIZONA

CITY           SKY/WX    TMP DP  RH WIND       PRES   REMARKS
CRAIG, CO      PTSUNNY   78  42  27 W9G20     30.03S
GRAND JUNCTION CLOUDY    64  58  80 SE20      29.98F
RIFLE          PTSUNNY   70  53  54 NW7       30.02S
MONTROSE       LGT RAIN  65  55  70 W10       30.09R
CORTEZ         CLOUDY    74  49  41 SW13      30.06R
PAGE, AZ         N/A     88  39  17 S8        29.86F
GRAND CANYON   PTSUNNY   71  45  39 S14G23    30.08F
KINGMAN          N/A     89  45  21 SW25G33   29.88F
FLAGSTAFF        N/A     64  48  56 W3        30.15F

$$

REGIONAL REPORTS    NEVADA/IDAHO/WYOMING

CITY           SKY/WX    TMP DP  RH WIND       PRES   REMARKS
LAS VEGAS, NV    N/A     94  45  18 S12G24    29.67F HX  90
ELY              N/A     77  23  13 S33G46    29.85F
ELKO             N/A     77  28  16 W18G24    29.71F
POCATELLO, ID  MOSUNNY   78  39  24 NW8       29.74F
BURLEY           N/A     74  42  31 CALM      29.72F
EVANSTON, WY   MOSUNNY   78  24  13 SW31G40   29.93F
ROCK SPRINGS   SUNNY     75  37  25 S28       29.96F
KEMMERER       MOSUNNY  N/A N/A N/A SW21G37   29.95F

$$


USA.gov is the U.S. government's official web portal to all federal, state and local government web resources and services.